Regional Weather Roundup
Issued by NWS

Home | Current Version | Previous Version | Graphics & Text | Print | Product List | Glossary On
Versions: 1 2 3 4 5 6 7 8 9 10 11 12 13 14 15 16 17 18 19 20 21 22 23 24 25 26 27 28 29 30 31 32 33 34 35 36 37 38 39 40 41 42 43 44 45 46 47 48 49 50
000
ASUS43 KOAX 260210
RWRNE

WEATHER ROUNDUP FOR NEBRASKA
NATIONAL WEATHER SERVICE OMAHA NE
900 PM CDT SUN JUN 25 2017

NOTES: SATELLITE DATA IS BEING USED TO AUGMENT CLOUD COVER ABOVE
       12000 FEET.
       "FAIR" INDICATES FEW OR NO CLOUDS BELOW 12,000 FEET WITH NO
       SIGNIFICANT WEATHER AND/OR OBSTRUCTIONS TO VISIBILITY.

  * THESE STATIONS DO NOT REPORT WEATHER SUCH AS RAIN...SNOW OR FOG.

NEZ001>004-019>022-054>056-260300-
NEBRASKA PANHANDLE

CITY           SKY/WX    TMP DP  RH WIND       PRES   REMARKS
SCOTTSBLUFF    CLEAR     73  46  38 E8        30.21S
ALLIANCE       MOCLDY    70  44  39 S6        30.21S
CHADRON        MOCLDY    76  45  33 N3        30.17R
GORDON         FAIR      69  50  50 CALM      30.19S
KIMBALL        CLEAR     65  53  63 S12       30.29S
SIDNEY         CLEAR     64  52  64 S12       30.28S
$$

NEZ057>060-069>072-079>082-260300-
SOUTHWEST NEBRASKA

CITY           SKY/WX    TMP DP  RH WIND       PRES   REMARKS
NORTH PLATTE   CLEAR     68  47  46 S10       30.22S
IMPERIAL       CLEAR     63  52  67 S8        30.26F
LEXINGTON      CLEAR     68  47  46 S10       30.23F
MCCOOK         MOCLDY    64  54  69 S3        30.26S
OGALLALA       CLEAR     67  53  59 S10       30.24S
$$

NEZ005>010-023>029-035>040-094-260300-
NORTH CENTRAL NEBRASKA

CITY           SKY/WX    TMP DP  RH WIND       PRES   REMARKS
VALENTINE      PTCLDY    72  42  34 SE6       30.16F
AINSWORTH      PTCLDY    67  48  51 E5        30.18S
BROKEN BOW     CLEAR     70  47  43 S13       30.20F
O`NEILL        PTCLDY    68  42  39 SE6       30.18F
ORD            CLEAR     71  39  31 S8        30.18F
THEDFORD       CLEAR     73  45  36 S12       30.19S
$$

NEZ041-046>049-061>064-073>077-083>087-260300-
SOUTH CENTRAL NEBRASKA

CITY           SKY/WX    TMP DP  RH WIND       PRES   REMARKS
GRAND ISLAND   CLEAR     70  46  42 SW8       30.22F
AURORA         CLEAR     69  45  41 S7        30.22F
HASTINGS       CLEAR     67  46  47 S7        30.25F
HEBRON         CLEAR     65  49  55 CALM      30.24S
HOLDREGE       PTCLDY    63  48  58 SE5       30.24F
KEARNEY *      CLOUDY    68  46  45 S12       30.24F
YORK           CLEAR     68  45  42 CALM      30.22F
$$

NEZ011>018-030>034-042>045-260300-
NORTHEAST NEBRASKA

CITY           SKY/WX    TMP DP  RH WIND       PRES   REMARKS
NORFOLK        CLEAR     63  45  51 SE8       30.18F
ALBION         PTCLDY    69  38  31 E5        30.19F
BLAIR          CLEAR     70  43  38 CALM      30.22S
FREMONT        CLEAR     71  40  32 CALM      30.21F
TEKAMAH        CLEAR     68  41  37 E3        30.20F
WAYNE          CLEAR     64  49  57 SE6       30.18F
$$

NEZ050>053-065>068-078-088>093-260300-
SOUTHEAST NEBRASKA

CITY           SKY/WX    TMP DP  RH WIND       PRES   REMARKS
LINCOLN        CLEAR     69  46  43 NE5       30.22S
OMAHA EPPLEY   PTCLDY    72  44  36 CALM      30.21S
BEATRICE       CLEAR     68  52  56 SW6       30.23S
FALLS CITY     CLEAR     68  51  54 S7        30.21S
NEBRASKA CITY  CLEAR     69  48  47 CALM      30.23S
PLATTSMOUTH    CLEAR     69  42  36 CALM      30.22S
$$

NEZ044-045-051>053-067-260300-
OMAHA AREA

CITY           SKY/WX    TMP DP  RH WIND       PRES   REMARKS
OMAHA EPPLEY   PTCLDY    72  44  36 CALM      30.21S
BLAIR          CLEAR     70  43  38 CALM      30.22S
FREMONT        CLEAR     71  40  32 CALM      30.21F
MILLARD        CLEAR     73  43  34 CALM      30.22S
OFFUTT AFB     CLEAR     64  53  67 CALM      30.21S
PLATTSMOUTH    CLEAR     69  42  36 CALM      30.22S
WAHOO          FAIR      68  45  43 E3        30.22S
$$




USA.gov is the U.S. government's official web portal to all federal, state and local government web resources and services.